Temp
13 13 14 12 11 12 13 11 14 14 14 14 14 13 13 12 12 11 11 8 11 11 11 10 11 11 11 10 10 10 10 10 9 9 9 9 9 8 9 9 9 9 8 8 8 8 8 8 8
13 13 11 11 12 12 11 12 13 13 13 13 13 12 11 10 11 12 11 11 11 11 11 10 10 10 10 10 10 10 10 10 10 9 9 9 9 8 9 8 8 9 8 9 8 8 8 8 8
13 12 11 12 12 12 12 10 12 14 14 13 13 12 11 10 10 12 11 11 11 11 10 10 10 10 10 10 10 10 10 9 9 9 9 9 9 9 9 9 9 9 9 9 9 9 8 8 8
12 11 11 12 14 12 11 11 13 13 13 13 13 13 12 10 10 11 11 10 10 11 10 10 10 10 10 11 10 10 9 10 10 10 9 9 9 9 9 9 9 9 9 9 9 8 8 8 8
12 11 12 13 13 12 12 12 13 13 13 14 13 10 11 11 11 12 11 10 11 11 11 10 10 10 10 10 10 10 10 9 9 9 10 9 10 10 9 9 9 9 9 8 8 8 8 8 8
12 13 14 13 13 13 13 13 13 13 12 13 12 12 11 9 11 9 9 9 11 10 11 10 10 10 10 10 10 10 9 9 9 10 10 9 9 9 9 9 9 9 8 8 8 8 8 8 8
13 13 13 14 12 13 12 13 13 12 12 12 13 12 10 9 10 8 8 9 9 9 10 9 10 10 10 10 10 10 9 9 9 10 9 9 9 10 9 9 9 9 8 8 8 8 8 8 7
13 13 12 12 13 13 12 12 12 12 11 12 12 12 11 10 10 9 8 9 8 8 9 10 10 10 10 10 10 10 10 9 9 9 8 9 9 10 9 9 9 9 9 8 8 8 8 7 7
13 13 11 11 13 12 12 12 11 11 12 11 12 12 10 10 9 9 8 8 8 9 10 10 9 10 10 10 10 10 10 9 9 9 8 9 10 10 10 9 9 9 9 8 8 8 8 8 8
14 13 13 12 12 12 12 12 11 11 11 11 12 11 10 10 9 9 9 9 8 10 10 10 9 10 10 10 10 10 9 9 9 9 9 10 9 10 10 9 9 9 8 8 8 7 8 9 9
14 13 14 13 12 12 12 11 11 12 11 11 11 10 9 9 9 9 8 8 8 10 9 10 9 10 9 10 10 9 9 9 9 9 10 10 9 8 9 9 8 8 8 8 7 7 7 8 8
13 14 13 13 12 11 11 12 11 11 11 11 10 10 10 9 9 9 8 9 7 8 9 8 9 9 10 9 9 9 9 9 9 9 10 9 8 8 9 8 8 9 9 8 7 8 8 8 8
14 14 14 13 12 11 11 11 11 11 10 11 11 11 10 9 9 8 8 9 8 8 9 9 10 9 9 9 9 9 9 9 9 9 9 10 8 8 8 8 9 9 9 9 8 8 8 8 8
14 14 14 13 13 12 12 11 11 11 12 11 11 11 10 10 10 9 9 9 8 8 9 9 9 9 9 9 9 9 9 10 9 8 9 9 8 8 9 9 9 9 9 8 8 8 8 8 8
14 14 15 13 14 12 12 11 11 11 11 11 11 11 11 10 10 10 9 9 8 8 9 9 9 9 9 9 9 9 9 9 9 9 9 9 9 8 9 8 8 8 9 9 8 8 8 8 8
15 15 14 13 13 13 12 12 11 11 12 11 12 11 11 10 9 10 9 9 9 8 9 9 10 9 9 9 9 9 9 9 8 8 9 9 9 10 8 8 8 8 8 9 9 8 8 8 9
16 15 14 14 14 13 12 12 12 11 11 11 11 12 11 10 10 9 10 9 9 8 9 8 8 9 9 9 9 9 8 8 8 9 9 9 9 9 8 7 8 9 10 9 9 8 8 9 9
16 16 16 15 14 14 13 13 13 13 11 11 12 12 11 11 10 10 9 9 9 8 8 8 8 9 10 9 9 8 8 8 8 9 9 9 9 9 8 9 8 9 10 10 9 9 8 9 8
16 16 16 15 15 14 15 14 14 14 11 12 11 12 12 11 11 10 9 9 9 8 9 8 8 10 10 9 9 9 8 8 9 8 8 7 9 9 9 9 9 9 9 9 9 9 9 9 9
16 16 16 14 15 14 15 15 14 13 13 12 12 12 12 12 11 11 10 9 9 9 9 8 9 10 9 9 9 9 10 8 9 8 8 9 9 9 10 10 10 10 9 8 9 9 9 9 10
16 17 16 15 16 14 15 14 14 11 11 13 13 12 13 12 11 11 11 9 9 9 9 9 10 10 9 9 9 9 10 10 10 9 9 9 9 10 9 10 10 10 10 10 9 9 9 10 9
17 17 17 17 17 15 15 13 13 13 13 12 14 13 13 12 12 11 10 11 9 9 9 10 10 10 9 9 10 10 10 10 10 9 9 9 10 10 9 10 10 10 10 9 10 9 10 10 8
16 17 16 17 17 16 14 13 14 14 10 11 14 14 13 13 12 12 10 11 10 9 9 10 10 10 9 9 10 10 9 10 10 9 9 9 10 9 8 9 10 11 10 10 10 10 9 9 9
16 16 16 16 14 15 14 15 15 13 15 12 15 14 14 13 13 12 12 11 10 10 9 10 11 10 9 9 10 10 10 10 9 9 9 9 10 9 9 10 10 10 10 9 10 10 9 9 9
16 17 16 16 11 9 15 14 17 17 16 16 15 15 15 14 13 12 11 11 11 10 10 9 11 10 10 9 9 10 9 9 10 9 9 9 9 9 9 10 10 10 9 9 10 10 9 10 9
17 17 16 17 13 15 16 13 16 17 16 15 15 15 14 14 13 12 12 11 11 10 10 10 11 11 10 10 10 9 9 9 9 9 9 10 8 8 9 9 10 9 10 10 10 10 10 10 10
17 17 18 19 19 20 17 16 16 16 16 15 15 14 14 13 13 12 12 11 10 10 11 11 11 11 11 10 10 10 10 9 10 10 10 10 9 8 9 10 9 10 9 10 10 10 10 10 10
17 17 18 18 18 18 19 16 15 15 16 15 14 14 13 13 13 12 11 11 10 10 11 11 11 11 11 11 11 10 10 10 10 10 10 10 9 9 9 10 9 10 9 10 10 10 10 10 10
17 17 17 18 18 19 18 17 16 15 14 15 15 14 13 13 12 12 12 11 10 10 11 11 11 11 11 11 11 11 10 10 10 10 10 10 10 9 9 9 10 10 10 10 9 9 9 10 10
18 18 18 19 19 19 19 18 17 16 16 16 16 15 14 13 12 12 12 12 11 11 12 11 11 11 11 11 11 11 11 11 11 11 10 10 10 10 9 10 10 10 10 9 10 9 9 10 10
Height
3167 3166 3165 3164 3170 3166 3162 3161 3160 3164 3164 3168 3169 3167 3168 3170 3169 3174 3174 3176 3177 3179 3181 3184 3185 3186 3188 3190 3190 3192 3193 3194 3195 3196 3196 3196 3197 3197 3198 3198 3198 3198 3198 3198 3198 3198 3198 3199 3200
3169 3164 3169 3168 3170 3166 3166 3158 3167 3164 3166 3169 3170 3168 3169 3172 3171 3171 3174 3176 3179 3180 3181 3184 3185 3187 3188 3190 3192 3193 3195 3195 3196 3197 3197 3198 3198 3198 3199 3198 3198 3198 3198 3199 3199 3199 3199 3199 3201
3170 3167 3167 3169 3169 3167 3166 3159 3165 3168 3170 3169 3171 3170 3170 3172 3170 3173 3176 3177 3179 3182 3185 3185 3186 3187 3188 3189 3192 3194 3196 3196 3198 3198 3198 3199 3198 3199 3199 3199 3199 3198 3198 3199 3200 3200 3199 3199 3202
3169 3169 3171 3171 3169 3168 3165 3163 3163 3170 3170 3171 3169 3169 3172 3173 3173 3176 3177 3179 3180 3183 3187 3187 3187 3188 3188 3190 3192 3195 3196 3197 3198 3199 3199 3199 3199 3199 3199 3199 3199 3199 3199 3199 3200 3200 3199 3198 3202
3172 3170 3171 3170 3170 3169 3169 3167 3171 3171 3171 3173 3171 3170 3171 3172 3172 3174 3176 3178 3179 3183 3185 3187 3189 3190 3190 3192 3194 3196 3197 3198 3199 3199 3199 3200 3199 3200 3200 3201 3201 3200 3199 3199 3201 3201 3198 3198 3202
3176 3177 3174 3172 3170 3172 3171 3172 3172 3172 3170 3176 3173 3171 3172 3172 3172 3174 3177 3178 3179 3183 3186 3188 3190 3190 3191 3193 3194 3195 3197 3198 3198 3199 3198 3199 3200 3200 3201 3201 3201 3201 3200 3199 3200 3200 3199 3199 3201
3180 3177 3175 3171 3172 3171 3171 3173 3174 3172 3173 3172 3176 3174 3174 3171 3172 3175 3179 3180 3182 3184 3187 3188 3191 3191 3192 3193 3195 3196 3197 3198 3198 3199 3199 3198 3200 3201 3201 3201 3201 3201 3200 3200 3199 3200 3200 3200 3201
3180 3179 3175 3173 3173 3174 3172 3173 3173 3173 3173 3169 3178 3176 3174 3171 3173 3175 3180 3181 3179 3182 3186 3189 3191 3191 3191 3194 3195 3196 3197 3197 3198 3198 3198 3199 3200 3201 3201 3202 3202 3202 3201 3201 3200 3200 3201 3200 3201
3180 3178 3176 3171 3173 3171 3172 3172 3173 3173 3174 3170 3178 3175 3174 3172 3174 3176 3180 3182 3181 3184 3186 3188 3190 3191 3192 3193 3194 3196 3196 3196 3197 3196 3197 3198 3199 3200 3202 3204 3204 3203 3202 3201 3200 3199 3199 3199 3198
3179 3177 3175 3173 3174 3171 3171 3171 3169 3174 3173 3174 3179 3175 3174 3176 3175 3176 3179 3180 3181 3183 3185 3186 3188 3190 3192 3194 3194 3195 3196 3196 3196 3197 3197 3198 3199 3201 3204 3205 3205 3205 3204 3203 3202 3201 3200 3197 3193
3180 3178 3177 3175 3171 3170 3171 3171 3172 3173 3172 3174 3173 3176 3174 3176 3180 3181 3181 3182 3181 3182 3184 3185 3185 3188 3191 3193 3193 3194 3195 3195 3196 3197 3198 3198 3201 3203 3205 3205 3204 3206 3206 3205 3202 3199 3200 3198 3200
3178 3176 3174 3173 3170 3170 3169 3170 3169 3170 3170 3172 3171 3171 3176 3178 3177 3178 3180 3181 3179 3180 3184 3185 3186 3188 3191 3192 3193 3194 3194 3194 3196 3197 3200 3202 3204 3204 3203 3203 3203 3206 3206 3204 3200 3200 3202 3199 3196
3177 3176 3176 3171 3169 3169 3169 3170 3172 3171 3171 3173 3173 3178 3178 3179 3177 3178 3178 3179 3180 3181 3182 3183 3184 3187 3189 3191 3192 3192 3193 3194 3195 3199 3201 3202 3203 3203 3204 3203 3204 3203 3204 3204 3202 3202 3202 3203 3198
3176 3176 3174 3172 3172 3170 3170 3170 3171 3171 3171 3171 3177 3177 3178 3178 3176 3177 3176 3177 3179 3181 3180 3182 3183 3185 3187 3189 3191 3191 3192 3192 3196 3199 3202 3202 3202 3202 3204 3203 3204 3204 3204 3204 3205 3204 3204 3204 3201
3175 3174 3172 3169 3169 3170 3169 3169 3170 3170 3171 3174 3176 3178 3177 3176 3175 3175 3176 3177 3178 3179 3180 3180 3183 3184 3186 3188 3189 3190 3192 3193 3196 3199 3202 3201 3203 3204 3205 3207 3208 3204 3204 3204 3204 3206 3206 3205 3202
3173 3172 3170 3169 3168 3168 3168 3169 3170 3170 3171 3173 3176 3176 3176 3174 3173 3174 3176 3176 3173 3177 3177 3180 3180 3183 3185 3187 3188 3189 3190 3192 3197 3199 3201 3202 3203 3206 3208 3204 3202 3203 3202 3203 3204 3206 3205 3204 3203
3170 3169 3170 3166 3168 3167 3168 3167 3166 3168 3170 3172 3172 3173 3174 3176 3174 3172 3172 3175 3174 3174 3175 3178 3178 3181 3183 3185 3186 3188 3189 3192 3195 3197 3199 3200 3202 3208 3205 3199 3205 3204 3203 3205 3203 3206 3208 3206 3203
3169 3168 3166 3164 3165 3165 3165 3164 3162 3164 3167 3168 3169 3170 3170 3172 3175 3173 3172 3172 3170 3171 3171 3174 3177 3179 3182 3183 3185 3187 3188 3191 3194 3197 3198 3200 3201 3205 3206 3207 3206 3203 3201 3204 3204 3206 3208 3205 3204
3168 3166 3163 3162 3162 3164 3162 3160 3159 3160 3162 3163 3164 3168 3168 3169 3170 3172 3171 3170 3171 3172 3170 3173 3174 3177 3181 3182 3183 3186 3186 3190 3194 3196 3198 3200 3201 3203 3205 3205 3205 3203 3203 3204 3205 3207 3206 3204 3202
3166 3162 3162 3165 3162 3162 3160 3158 3153 3154 3155 3158 3162 3165 3167 3167 3166 3170 3171 3169 3169 3170 3170 3171 3173 3177 3180 3181 3183 3185 3187 3189 3193 3196 3199 3200 3201 3202 3203 3203 3203 3203 3204 3204 3205 3205 3205 3201 3198
3162 3159 3159 3163 3159 3157 3157 3156 3154 3154 3147 3160 3162 3163 3165 3165 3164 3166 3169 3170 3169 3168 3169 3170 3172 3175 3179 3181 3182 3184 3187 3189 3193 3196 3197 3199 3200 3201 3201 3202 3202 3201 3203 3204 3200 3203 3203 3199 3197
3158 3157 3158 3157 3157 3155 3156 3157 3152 3151 3153 3153 3161 3162 3163 3161 3163 3165 3166 3169 3170 3167 3167 3168 3170 3174 3177 3180 3181 3184 3186 3190 3191 3194 3196 3196 3199 3198 3198 3201 3202 3201 3202 3202 3201 3201 3201 3197 3188
3160 3158 3158 3156 3153 3150 3155 3157 3151 3151 3156 3140 3152 3158 3161 3160 3159 3162 3166 3168 3169 3170 3166 3166 3169 3172 3175 3179 3181 3183 3185 3187 3191 3192 3194 3196 3198 3197 3197 3201 3202 3202 3202 3203 3203 3202 3200 3198 3195
3159 3158 3156 3155 3154 3156 3152 3153 3150 3150 3146 3140 3147 3153 3155 3159 3158 3160 3163 3166 3166 3170 3168 3166 3169 3172 3174 3177 3179 3182 3184 3187 3189 3191 3192 3194 3195 3196 3199 3200 3201 3201 3200 3200 3201 3200 3198 3199 3200
3157 3156 3156 3154 3165 3166 3148 3154 3145 3145 3146 3148 3149 3151 3152 3153 3157 3159 3161 3163 3165 3169 3168 3165 3168 3171 3172 3175 3177 3180 3183 3185 3188 3190 3191 3194 3195 3195 3197 3198 3198 3198 3198 3197 3198 3199 3198 3199 3200
3153 3152 3154 3146 3151 3142 3145 3152 3145 3144 3145 3144 3145 3146 3148 3150 3155 3156 3159 3161 3162 3166 3166 3167 3167 3169 3171 3173 3176 3178 3181 3183 3185 3188 3191 3194 3195 3195 3195 3189 3195 3196 3197 3195 3197 3198 3199 3199 3200
3153 3149 3145 3141 3133 3127 3142 3142 3143 3144 3144 3140 3139 3142 3146 3149 3153 3157 3158 3159 3162 3163 3165 3167 3167 3168 3169 3171 3173 3176 3179 3182 3184 3186 3190 3192 3193 3193 3192 3189 3197 3194 3194 3196 3196 3198 3199 3199 3199
3151 3150 3147 3142 3137 3135 3132 3138 3142 3145 3147 3147 3141 3139 3145 3148 3152 3155 3158 3160 3160 3161 3163 3165 3166 3167 3168 3170 3172 3176 3178 3181 3182 3184 3188 3190 3191 3191 3190 3192 3190 3192 3195 3196 3195 3196 3197 3197 3197
3148 3147 3146 3144 3141 3135 3135 3136 3134 3137 3144 3148 3147 3144 3144 3148 3152 3155 3157 3159 3160 3160 3162 3164 3166 3167 3168 3170 3172 3175 3178 3180 3181 3183 3185 3187 3188 3189 3190 3191 3191 3193 3194 3195 3195 3194 3194 3193 3194
3143 3143 3141 3139 3136 3133 3131 3133 3134 3136 3130 3144 3145 3144 3145 3148 3151 3155 3156 3156 3158 3159 3161 3163 3165 3168 3169 3171 3173 3175 3177 3179 3180 3181 3183 3185 3187 3188 3188 3189 3190 3190 3191 3192 3192 3192 3192 3190 3192
Wind_Speed
8 5 4 8 5 6 5 5 14 10 17 9 10 10 8 4 2 4 18 15 15 13 11 13 13 12 10 8 7 5 5 4 3 3 2 2 3 2 2 1 1 1 1 0 2 3 3 4 5
12 14 8 7 7 15 2 5 9 12 15 11 11 9 15 14 4 5 19 18 12 16 13 14 11 10 9 8 5 4 4 4 3 2 1 1 1 1 1 1 1 1 1 1 2 3 4 5 5
10 17 9 7 7 8 1 6 13 9 8 7 6 5 11 10 2 6 18 16 16 12 12 12 11 9 8 8 5 4 4 4 1 0 1 2 1 1 1 1 1 1 1 2 2 3 5 4 3
17 8 5 7 10 6 3 8 12 6 7 7 4 4 5 6 6 6 20 13 15 9 14 11 12 10 7 5 5 5 3 2 1 0 2 2 2 1 1 1 1 0 0 1 1 2 4 2 2
18 8 10 2 7 5 4 7 5 3 7 5 1 7 2 3 5 6 19 17 16 13 14 14 9 7 7 8 7 6 4 2 2 2 3 1 3 3 2 2 2 2 1 1 1 2 3 3 1
11 11 18 5 6 1 2 3 4 2 6 2 4 3 2 8 6 12 18 16 16 13 14 12 10 10 9 8 7 5 3 1 3 5 5 3 3 3 2 3 4 3 2 3 4 3 4 5 2
13 11 14 11 5 7 2 3 3 9 5 6 1 5 3 12 10 21 17 13 12 11 14 12 11 9 7 9 7 2 2 2 3 6 6 5 2 3 2 4 4 5 5 4 3 2 5 2 6
6 9 14 7 6 5 3 4 3 6 5 3 1 8 7 11 11 20 18 17 16 11 11 14 12 7 9 10 6 4 5 3 2 7 4 8 5 4 2 3 4 4 7 4 5 5 5 3 3
6 13 8 10 9 6 6 9 5 6 4 10 0 2 13 8 7 14 11 8 16 17 14 15 13 11 8 8 6 5 6 5 2 7 3 10 8 7 4 3 1 3 7 5 5 6 4 4 6
9 3 16 10 8 11 3 10 8 6 7 6 6 13 13 13 7 7 9 15 17 9 13 15 12 12 10 8 6 5 4 2 5 9 10 10 8 4 6 5 4 5 6 3 5 6 3 4 6
8 8 11 9 14 5 6 5 3 6 10 9 11 9 7 15 18 21 25 21 15 12 15 15 9 11 10 6 5 5 3 4 8 10 9 10 8 3 1 5 8 8 7 8 8 7 5 2 9
10 13 7 9 12 2 7 8 8 13 20 7 4 13 7 13 21 20 21 14 13 10 17 11 13 9 8 7 8 6 5 7 10 10 8 6 8 6 2 7 4 8 8 14 11 8 6 2 2
6 8 8 12 9 1 6 2 5 3 6 8 7 12 12 18 11 12 11 14 10 16 12 16 13 13 11 10 9 6 8 8 10 11 10 10 8 8 4 4 5 7 7 9 12 5 2 3 4
9 12 10 6 4 4 6 9 8 6 1 9 8 11 15 12 9 8 16 16 17 13 13 14 12 11 11 10 8 9 10 10 14 11 9 7 10 9 6 6 4 5 5 10 10 10 7 4 4
10 11 5 7 10 8 5 9 9 12 10 8 10 11 12 12 6 6 7 11 14 13 17 12 15 11 11 10 10 11 9 11 9 10 10 11 9 7 6 2 3 6 6 4 4 7 7 6 4
12 10 9 10 2 6 7 8 8 10 9 13 12 12 13 9 6 12 12 9 14 14 19 14 12 11 11 10 10 12 10 15 14 8 13 11 9 8 4 7 13 5 6 2 2 7 4 4 3
13 5 10 1 7 8 8 3 12 10 15 12 14 15 14 11 17 11 14 8 14 16 18 17 19 15 12 10 11 10 15 17 16 13 11 13 10 7 11 2 1 2 5 3 5 8 9 8 7
4 11 14 4 5 10 11 14 14 10 19 18 17 16 17 12 14 14 13 9 11 10 12 17 18 18 12 10 10 15 17 19 14 11 13 7 7 8 6 1 2 2 2 6 9 7 6 6 4
12 13 15 7 5 9 12 16 14 8 18 17 17 18 19 15 17 8 11 11 12 8 10 13 18 15 11 9 8 15 20 18 13 8 10 7 5 5 4 5 2 4 4 6 6 7 3 2 5
12 15 6 10 7 7 11 14 17 12 13 19 20 21 20 16 20 12 10 15 14 13 10 8 17 14 10 10 10 14 18 19 18 16 9 11 8 7 6 7 7 7 5 6 3 2 4 3 2
15 18 5 12 8 10 14 17 13 12 21 15 22 20 20 22 22 20 11 15 12 17 11 7 11 15 12 11 14 17 13 13 10 9 10 9 10 9 8 8 8 6 6 5 8 3 6 6 7
15 5 11 10 10 12 13 4 12 19 22 16 20 24 20 26 22 14 17 9 15 17 15 8 9 14 16 13 13 17 15 12 10 9 9 15 9 11 10 7 8 6 6 8 4 3 4 7 12
13 12 13 13 14 10 10 7 1 7 9 26 25 22 23 23 19 18 24 13 15 15 19 9 10 14 16 15 13 14 16 15 11 11 13 8 9 9 5 11 8 8 7 8 4 3 3 5 8
12 15 14 16 12 13 22 11 11 17 7 7 13 19 24 22 28 21 22 12 21 16 17 12 6 11 17 18 16 15 14 15 15 11 9 8 5 5 5 9 8 8 9 9 8 7 6 7 6
13 14 4 7 7 5 18 14 11 5 8 4 11 13 20 19 25 19 21 19 26 19 16 14 4 8 13 18 17 15 16 18 16 11 10 9 8 10 6 9 7 9 9 9 8 8 4 5 8
16 18 7 15 8 13 16 7 9 1 2 3 8 10 15 21 23 19 24 22 23 15 11 11 3 6 11 16 18 16 17 17 17 13 14 14 10 6 13 10 8 10 10 11 10 6 4 4 5
15 17 19 18 26 16 14 14 7 3 3 6 10 11 15 16 19 22 20 19 19 19 9 9 6 4 7 12 16 17 17 16 15 14 16 14 11 16 15 11 14 8 10 12 12 9 7 6 7
16 17 17 16 9 12 2 10 2 5 5 3 9 13 14 16 18 18 22 18 17 13 8 8 4 3 1 5 10 13 12 13 13 13 12 12 13 15 17 12 9 9 12 13 11 10 10 9 8
17 14 12 14 18 13 3 7 10 4 17 10 7 9 13 16 17 16 18 18 18 17 8 7 4 1 0 2 4 7 8 9 10 10 9 8 9 10 12 14 13 14 15 14 14 13 11 10 13
15 22 15 12 13 12 13 15 7 8 15 14 12 12 12 14 15 18 18 15 16 15 10 6 3 1 0 1 1 2 5 5 6 6 7 8 8 9 11 12 13 14 14 14 14 15 15 15 14
Wind_Direction
17 53 33 36 348 280 314 338 103 107 93 82 71 75 88 78 298 145 156 156 154 154 155 149 142 139 141 136 134 134 134 140 142 134 124 96 107 97 78 105 95 264 234 281 243 258 266 266 265
39 46 13 33 288 314 333 320 100 85 92 91 83 105 89 80 156 109 162 175 148 165 163 153 143 133 136 131 130 140 149 149 151 137 165 238 206 116 100 102 35 300 184 215 229 229 248 269 278
50 57 48 348 326 324 283 237 112 96 98 92 73 91 50 86 30 127 162 170 176 179 164 159 155 150 137 116 130 144 148 147 172 129 181 185 171 107 104 151 116 97 197 236 219 260 271 269 266
34 359 19 349 2 4 77 93 82 101 104 95 154 309 159 118 216 164 175 169 173 169 173 163 150 148 138 143 169 158 150 139 284 74 167 133 146 113 97 112 98 38 276 273 249 251 247 247 278
9 332 339 330 32 25 83 15 84 130 66 111 150 100 16 139 220 208 180 178 193 189 195 174 173 178 180 171 171 156 137 148 160 162 163 271 126 111 116 108 82 68 30 352 337 293 272 258 201
322 326 306 298 11 222 341 24 323 81 115 36 82 138 320 145 190 160 162 180 191 202 195 180 185 181 180 176 169 140 121 121 130 158 156 122 117 116 128 93 84 74 63 19 307 316 284 260 297
308 309 342 2 278 262 271 155 311 235 175 147 222 255 146 194 158 155 159 177 188 179 173 187 191 187 204 174 165 203 309 299 193 176 162 149 165 145 136 104 101 87 49 18 345 345 27 275 229
325 300 322 13 354 344 250 266 272 252 187 97 314 305 181 229 185 167 163 179 214 186 192 191 195 193 183 177 209 283 303 278 241 189 218 207 185 157 143 112 134 72 4 309 333 321 324 327 250
315 285 329 317 353 337 269 251 207 253 297 71 349 247 158 214 159 158 160 194 203 206 203 201 195 200 185 194 233 263 279 288 215 199 188 162 175 164 136 110 58 324 339 354 300 308 318 281 257
307 281 334 350 345 318 283 272 191 214 214 169 118 139 188 161 155 174 162 163 215 208 204 203 201 207 200 203 229 255 275 299 163 169 180 166 170 111 105 86 63 13 2 22 340 293 283 231 194
319 310 324 331 303 273 257 243 303 237 217 198 200 155 162 156 164 181 193 216 248 201 201 200 172 221 216 231 244 235 225 141 153 160 176 176 136 105 78 143 77 51 49 10 331 287 185 241 210
270 314 320 301 309 339 243 250 220 218 226 208 206 136 174 169 200 194 186 205 229 233 215 211 211 226 228 225 244 221 194 163 167 162 162 148 143 108 232 280 61 71 45 22 36 101 119 31 56
294 325 310 310 312 7 256 230 240 228 102 105 114 185 183 187 214 193 193 203 237 220 242 221 223 228 231 237 233 214 196 180 162 180 176 184 143 148 120 56 97 64 35 40 60 60 46 52 21
284 300 284 294 308 296 234 225 202 236 37 103 189 174 193 235 253 217 196 196 236 231 232 236 234 218 220 228 233 222 213 186 181 180 181 185 170 147 120 133 109 65 36 39 34 48 41 35 66
296 293 303 218 317 272 241 256 211 249 159 176 176 176 191 243 241 282 254 252 246 235 235 243 223 208 210 226 231 228 205 192 189 194 173 187 177 176 152 122 201 112 70 52 30 38 57 48 36
262 276 300 272 228 262 235 253 225 221 199 193 188 182 180 217 210 260 245 273 222 263 234 233 217 213 216 232 231 234 211 200 190 205 174 183 220 183 184 217 247 102 74 195 31 350 343 47 60
237 313 300 159 292 263 239 244 176 205 233 200 195 192 190 186 224 249 285 277 245 232 220 236 221 238 220 226 232 217 189 190 191 175 188 182 189 187 216 49 233 45 27 128 77 357 19 42 58
282 267 280 308 291 255 242 253 267 212 205 212 196 200 207 233 200 238 276 297 306 290 241 212 235 232 219 212 225 206 187 188 190 180 196 183 218 189 235 285 78 188 71 24 51 3 6 65 110
287 286 286 278 292 259 261 257 266 287 195 201 199 202 209 213 217 237 245 296 298 294 248 203 230 229 214 212 213 207 187 193 163 211 185 227 203 230 208 235 321 286 302 337 36 355 325 230 69
280 269 316 286 265 244 279 278 267 223 206 223 206 212 210 225 219 246 233 257 276 303 277 227 227 212 216 208 189 193 195 188 203 191 212 206 208 241 213 232 226 228 244 242 235 299 308 285 194
259 266 247 284 259 219 293 307 278 245 241 216 231 220 214 213 226 245 239 228 257 285 290 233 212 212 221 220 192 198 206 194 203 194 211 213 207 223 257 238 241 249 258 260 256 282 279 284 203
280 296 280 268 282 251 284 264 316 272 236 247 230 227 220 220 230 215 214 225 233 265 284 246 214 204 211 226 212 208 220 216 208 216 208 218 221 220 234 245 252 246 261 282 288 285 281 277 311
278 298 287 266 270 233 245 199 346 238 258 272 203 225 219 224 220 234 207 270 209 250 276 275 227 209 211 215 222 211 218 223 219 230 229 229 220 246 237 265 281 271 271 283 253 277 273 255 264
269 283 280 274 334 336 295 282 215 194 228 60 197 214 218 207 218 225 235 235 207 254 263 278 240 214 213 212 220 215 216 215 215 218 223 229 240 265 243 262 270 288 283 279 281 295 263 222 219
252 264 336 288 54 250 296 282 239 233 143 202 201 217 213 210 210 217 204 213 236 245 258 266 268 226 226 218 224 215 217 218 235 222 206 218 244 259 260 257 263 266 277 285 286 303 250 223 224
242 277 219 274 168 232 212 237 274 326 129 174 164 191 188 204 191 202 221 232 235 241 243 258 276 235 234 224 225 218 219 225 235 232 230 219 225 229 253 239 258 270 283 283 282 287 242 231 222
250 254 289 295 298 311 130 184 175 167 154 122 128 152 169 188 180 196 217 222 227 238 232 249 277 286 239 224 220 218 217 220 234 237 233 223 224 243 266 266 254 256 287 287 283 268 260 268 244
251 281 296 309 322 336 46 97 47 269 232 155 135 145 171 172 186 192 203 212 238 252 217 233 254 302 203 206 212 215 214 223 232 236 230 252 254 256 266 277 282 282 282 273 269 267 276 270 282
232 252 247 264 274 296 260 259 186 333 192 192 170 160 169 173 183 183 201 215 220 233 224 223 221 255 98 123 166 203 213 229 240 248 253 256 259 261 260 270 273 276 276 275 268 269 276 283 281
252 244 271 248 269 252 293 56 214 193 159 172 169 166 169 175 181 189 207 231 209 220 228 231 237 306 74 123 128 211 220 233 247 260 266 267 268 269 273 273 278 280 277 274 277 274 278 280 280